When you browse on this site, cookies collect data to enhance your experience and personalize the content and advertising you see.
Visit our Privacy Policy to learn more. By continuing to use the site, you agree to this use of cookies and data.
  • In Latvia
  • List of Countries
  • For 7 days
  • Water Temperature
  • Satellite Maps
  • Weather Map
  • Weather Widgets
  • user-avatar
    Login

    Hourly Weather Talsi

    Today, 20 July, Saturday

    Time Temperature Precipitation Wind Pressure Humidity
    00:00 +12°C° 0 mm 2 mps 753 mmHg 92%
    01:00 +12°C° 0 mm 2 mps 753 mmHg 93%
    02:00 +12°C° 0 mm 1 mps 753 mmHg 93%
    03:00 +12°C° 0 mm 2 mps 753 mmHg 93%
    04:00 +12°C° 0 mm 2 mps 753 mmHg 92%
    05:00 +12°C° 0 mm 2 mps 753 mmHg 92%
    06:00 +14°C° 0 mm 2 mps 754 mmHg 84%
    07:00 +16°C° 0 mm 2 mps 754 mmHg 76%
    08:00 +18°C° 0 mm 2 mps 754 mmHg 68%
    09:00 +21°C° 0 mm 1 mps 754 mmHg 60%
    10:00 +23°C° 0 mm 1 mps 754 mmHg 52%
    11:00 +25°C° 0 mm 1 mps 755 mmHg 45%
    12:00 +25°C° 0 mm 1 mps 755 mmHg 43%
    13:00 +26°C° 0 mm 1 mps 755 mmHg 42%
    14:00 +26°C° 0 mm 1 mps 755 mmHg 41%
    15:00 +26°C° 0 mm 2 mps 755 mmHg 43%
    16:00 +25°C° 0 mm 2 mps 755 mmHg 46%
    17:00 +24°C° 0 mm 2 mps 755 mmHg 48%
    18:00 +23°C° 0 mm 2 mps 755 mmHg 56%
    19:00 +20°C° 0 mm 2 mps 755 mmHg 65%
    20:00 +18°C° 0 mm 2 mps 755 mmHg 73%
    21:00 +18°C° 0 mm 1 mps 755 mmHg 75%
    22:00 +16°C° 0 mm 1 mps 755 mmHg 77%
    23:00 +14°C° 0 mm 1 mps 755 mmHg 79%

    Tomorrow, 21 July, Sunday

    Time Temperature Precipitation Wind Pressure Humidity
    00:00 +14°C° 0 mm 1 mps 755 mmHg 77%
    01:00 +14°C° 0 mm 1 mps 755 mmHg 76%
    02:00 +14°C° 0 mm 1 mps 755 mmHg 75%
    03:00 +14°C° 0 mm 1 mps 755 mmHg 76%
    04:00 +14°C° 0 mm 1 mps 755 mmHg 77%
    05:00 +14°C° 0 mm 1 mps 755 mmHg 77%
    06:00 +16°C° 0 mm 1 mps 755 mmHg 72%
    07:00 +18°C° 0 mm 2 mps 755 mmHg 67%
    08:00 +20°C° 0 mm 2 mps 755 mmHg 62%
    09:00 +21°C° 0 mm 2 mps 755 mmHg 57%
    10:00 +22°C° 0 mm 3 mps 754 mmHg 52%
    11:00 +25°C° 0 mm 3 mps 754 mmHg 48%
    12:00 +25°C° 0 mm 3 mps 754 mmHg 47%
    13:00 +26°C° 0 mm 3 mps 754 mmHg 46%
    14:00 +26°C° 0 mm 3 mps 754 mmHg 45%
    15:00 +26°C° 0 mm 3 mps 754 mmHg 48%
    16:00 +26°C° 0 mm 3 mps 753 mmHg 50%
    17:00 +25°C° 0 mm 3 mps 753 mmHg 52%
    18:00 +24°C° 0.2 mm 2 mps 753 mmHg 61%
    19:00 +21°C° 0.2 mm 2 mps 753 mmHg 70%
    20:00 +20°C° 0.2 mm 2 mps 753 mmHg 79%
    21:00 +19°C° 0.2 mm 2 mps 753 mmHg 80%
    22:00 +19°C° 0.2 mm 2 mps 753 mmHg 80%
    23:00 +19°C° 0.2 mm 1 mps 753 mmHg 81%

    Day after tomorrow, 22 July, Monday

    Time Temperature Precipitation Wind Pressure Humidity
    00:00 +18°C° 0.1 mm 2 mps 752 mmHg 85%
    01:00 +18°C° 0.1 mm 2 mps 752 mmHg 88%
    02:00 +17°C° 0.1 mm 2 mps 752 mmHg 91%
    03:00 +17°C° 0.3 mm 2 mps 752 mmHg 92%
    04:00 +17°C° 0.3 mm 2 mps 752 mmHg 94%
    05:00 +17°C° 0.3 mm 2 mps 752 mmHg 95%
    06:00 +17°C° 0.2 mm 2 mps 752 mmHg 94%
    07:00 +19°C° 0.2 mm 1 mps 752 mmHg 93%
    08:00 +19°C° 0.2 mm 1 mps 752 mmHg 93%
    09:00 +20°C° 0.3 mm 1 mps 752 mmHg 89%
    10:00 +20°C° 0.3 mm 1 mps 752 mmHg 85%
    11:00 +21°C° 0.3 mm 1 mps 753 mmHg 81%
    12:00 +21°C° 0.6 mm 1 mps 753 mmHg 82%
    13:00 +22°C° 0.6 mm 1 mps 753 mmHg 82%
    14:00 +22°C° 0.6 mm 1 mps 753 mmHg 82%
    15:00 +22°C° 0.5 mm 1 mps 753 mmHg 83%
    16:00 +21°C° 0.5 mm 1 mps 753 mmHg 83%
    17:00 +21°C° 0.5 mm 1 mps 753 mmHg 84%
    18:00 +21°C° 0.4 mm 1 mps 753 mmHg 87%
    19:00 +19°C° 0.4 mm 2 mps 753 mmHg 90%
    20:00 +18°C° 0.4 mm 2 mps 753 mmHg 93%
    21:00 +17°C° 0 mm 2 mps 753 mmHg 94%
    22:00 +16°C° 0 mm 2 mps 753 mmHg 96%
    23:00 +16°C° 0 mm 2 mps 754 mmHg 97%

    23 July, Tuesday

    Time Temperature Precipitation Wind Pressure Humidity
    00:00 +15°C° 0 mm 2 mps 753 mmHg 97%
    01:00 +15°C° 0 mm 2 mps 753 mmHg 97%
    02:00 +15°C° 0 mm 2 mps 753 mmHg 97%
    03:00 +15°C° 0 mm 2 mps 753 mmHg 97%
    04:00 +15°C° 0 mm 1 mps 754 mmHg 97%
    05:00 +15°C° 0 mm 1 mps 754 mmHg 97%
    06:00 +16°C° 0 mm 1 mps 754 mmHg 94%
    07:00 +19°C° 0 mm 1 mps 754 mmHg 91%
    08:00 +20°C° 0 mm 1 mps 754 mmHg 88%
    09:00 +22°C° 0 mm 1 mps 754 mmHg 78%
    10:00 +23°C° 0 mm 1 mps 754 mmHg 69%
    11:00 +25°C° 0 mm 1 mps 754 mmHg 60%
    12:00 +24°C° 0.4 mm 2 mps 754 mmHg 64%
    13:00 +24°C° 0.4 mm 2 mps 754 mmHg 69%
    14:00 +24°C° 0.4 mm 3 mps 754 mmHg 73%
    15:00 +22°C° 0.5 mm 3 mps 754 mmHg 75%
    16:00 +22°C° 0.5 mm 3 mps 754 mmHg 76%
    17:00 +21°C° 0.5 mm 3 mps 753 mmHg 78%
    18:00 +20°C° 0.1 mm 2 mps 753 mmHg 81%
    19:00 +19°C° 0.1 mm 2 mps 753 mmHg 84%
    20:00 +18°C° 0.1 mm 2 mps 753 mmHg 87%
    21:00 +17°C° 0 mm 2 mps 753 mmHg 90%
    22:00 +16°C° 0 mm 2 mps 753 mmHg 93%
    23:00 +15°C° 0 mm 2 mps 753 mmHg 97%

    24 July, Wednesday

    Time Temperature Precipitation Wind Pressure Humidity
    00:00 +15°C° 0 mm 2 mps 753 mmHg 97%
    01:00 +15°C° 0 mm 1 mps 753 mmHg 97%
    02:00 +15°C° 0 mm 1 mps 753 mmHg 97%
    03:00 +15°C° 0 mm 1 mps 753 mmHg 97%
    04:00 +15°C° 0 mm 1 mps 753 mmHg 98%
    05:00 +15°C° 0 mm 1 mps 753 mmHg 98%
    06:00 +16°C° 0 mm 1 mps 753 mmHg 93%
    07:00 +19°C° 0 mm 1 mps 753 mmHg 88%
    08:00 +19°C° 0 mm 2 mps 754 mmHg 83%
    09:00 +20°C° 0 mm 2 mps 754 mmHg 76%
    10:00 +23°C° 0 mm 2 mps 754 mmHg 68%
    11:00 +24°C° 0 mm 2 mps 754 mmHg 60%
    12:00 +24°C° 0 mm 2 mps 754 mmHg 60%
    13:00 +24°C° 0 mm 2 mps 754 mmHg 60%
    14:00 +24°C° 0 mm 2 mps 754 mmHg 60%
    15:00 +24°C° 0 mm 2 mps 754 mmHg 59%
    16:00 +25°C° 0 mm 2 mps 754 mmHg 59%
    17:00 +25°C° 0 mm 3 mps 754 mmHg 58%
    18:00 +23°C° 0 mm 2 mps 754 mmHg 66%
    19:00 +21°C° 0 mm 2 mps 754 mmHg 74%
    20:00 +19°C° 0 mm 2 mps 754 mmHg 81%
    21:00 +18°C° 0 mm 2 mps 754 mmHg 84%
    22:00 +18°C° 0 mm 2 mps 754 mmHg 86%
    23:00 +17°C° 0 mm 2 mps 754 mmHg 89%

    25 July, Thursday

    Time Temperature Precipitation Wind Pressure Humidity
    00:00 +18°C° 0 mm 1 mps 754 mmHg 89%
    01:00 +18°C° 0 mm 1 mps 754 mmHg 90%
    02:00 +16°C° 0 mm 1 mps 754 mmHg 91%
    03:00 +16°C° 0 mm 1 mps 754 mmHg 91%
    04:00 +16°C° 0 mm 1 mps 754 mmHg 92%
    05:00 +16°C° 0 mm 1 mps 754 mmHg 93%
    06:00 +18°C° 0 mm 1 mps 755 mmHg 88%
    07:00 +19°C° 0 mm 1 mps 755 mmHg 84%
    08:00 +21°C° 0 mm 1 mps 755 mmHg 79%
    09:00 +20°C° 0 mm 2 mps 755 mmHg 75%
    10:00 +21°C° 0 mm 2 mps 756 mmHg 71%
    11:00 +22°C° 0 mm 3 mps 756 mmHg 67%
    12:00 +22°C° 0 mm 3 mps 756 mmHg 60%
    13:00 +24°C° 0 mm 3 mps 756 mmHg 53%
    14:00 +24°C° 0 mm 3 mps 757 mmHg 46%
    15:00 +23°C° 0 mm 4 mps 757 mmHg 48%
    16:00 +23°C° 0 mm 4 mps 757 mmHg 49%
    17:00 +22°C° 0 mm 4 mps 757 mmHg 51%
    18:00 +21°C° 0 mm 3 mps 757 mmHg 58%
    19:00 +19°C° 0 mm 3 mps 757 mmHg 65%
    20:00 +18°C° 0 mm 2 mps 757 mmHg 73%
    21:00 +17°C° 0 mm 2 mps 757 mmHg 75%
    22:00 +16°C° 0 mm 2 mps 757 mmHg 76%
    23:00 +15°C° 0 mm 1 mps 758 mmHg 78%
    Show more